#timestamp,LO_Frequency,Hit,StdDev 
1512050415.8,286046934.9,Y
1512050435.7,286046977.4,P
1512050455.5,286046979.5,N
1512050475.3,286046978.4,N
1512050495.2,286046977.9,N
1512050515.9,286046976.3,N
1512050535.7,286046974.2,Y
1512050555.6,286046998.7,P
1512050575.4,286046995.1,N
1512050595.2,286046996.0,N
1512050615.1,286046996.2,N
1512050616.0,286046996.2,N
1512050635.8,286046993.8,N
1512050655.6,286046991.3,N
1512050675.4,286046988.8,N
1512050695.3,286046988.8,N
1512050715.1,286046991.4,N
1512050735.9,286046990.5,N
1512050755.7,286046991.2,N
1512050775.5,286046989.4,N
1512050795.3,286046988.5,N
1512050815.2,286046987.1,N
1512050835.0,286046985.5,N
1512050835.9,286046985.5,N
1512050855.7,286046980.5,Y
1512050875.6,286046992.8,P
1512050895.4,286046993.6,P
1512050915.2,286046992.8,P
1512050935.1,286046993.5,Y
1512050936.0,286046993.5,P
1512050955.8,286047000.3,N
1512050975.6,286047002.2,N
1512050995.5,286047002.4,N
1512051015.3,286047002.2,N
1512051035.1,286047000.7,N
1512051055.9,286047000.8,N
1512051075.7,286047001.0,N
1512051095.5,286046997.8,N
1512051115.4,286046998.9,N
1512051135.2,286046999.3,N
1512051155.0,286046996.9,N
1512051155.9,286046996.9,N
1512051175.8,286046996.2,N
1512051195.6,286046994.5,N
1512051215.4,286046993.2,N
1512051235.2,286046991.0,N
1512051255.1,286046991.5,N
1512051256.0,286046991.5,N
1512051275.8,286046990.6,N
1512051295.6,286046988.7,N
1512051315.5,286046985.8,Y
1512051335.3,286046989.1,P
1512051355.1,286046992.3,N
1512051375.9,286046993.0,N
1512051395.7,286046990.1,Y
1512051415.5,286046998.2,P
1512051435.4,286046998.7,N
1512051455.2,286046995.7,N
1512051475.0,286046994.1,N
1512051475.9,286046994.1,N
1512051495.8,286046994.8,N
1512051515.6,286046990.0,Y
1512051535.4,286046991.7,P
1512051555.3,286046992.4,P
1512051575.1,286046994.8,P
1512051595.8,286046992.0,Y
1512051615.7,286046998.7,P
1512051635.5,286046999.6,N
1512051655.3,286046996.9,N
1512051675.2,286046997.5,N
1512051695.9,286046999.5,N
1512051715.7,286047001.0,N
1512051735.6,286046998.8,N
1512051755.4,286046998.3,N
1512051775.2,286046997.5,N
1512051795.1,286046997.4,N
1512051796.0,286046997.4,N
1512051815.8,286046994.9,N
1512051835.6,286046994.1,Y
1512051855.5,286046996.2,P
1512051875.3,286046995.4,P
1512051895.1,286046995.6,P
1512051915.9,286046995.3,Y
1512051935.7,286046998.2,P
1512051955.5,286047004.2,P
1512051975.3,286047003.2,N
1512051995.2,286047001.7,N
1512052015.0,286047001.8,N
1512052015.9,286047001.8,N
1512052035.7,286047001.8,N
1512052055.6,286047003.5,N
1512052075.4,286047003.7,N
1512052095.2,286047005.5,N
1512052115.1,286047003.4,N
1512052116.0,286047003.4,N
1512052135.8,286047000.7,N
1512052155.6,286046997.4,N
1512052175.5,286046995.1,N
1512052195.3,286046997.9,N
1512052215.1,286046994.9,N
1512052235.9,286046995.0,N
1512052255.7,286046995.9,N
1512052275.5,286046992.3,N
1512052295.3,286046992.1,N
1512052315.2,286046993.0,N
1512052335.0,286046994.7,N
1512052335.9,286046994.7,N
1512052355.7,286046994.6,N
1512052375.6,286046992.7,N
1512052395.4,286046990.3,N
1512052415.2,286046991.3,N
1512052435.1,286046992.7,N
1512052436.0,286046992.7,N
1512052455.8,286046991.4,N
1512052475.6,286046992.3,N
1512052495.5,286046991.8,N
1512052515.3,286046991.9,N
1512052535.1,286046993.9,N
1512052555.9,286046994.1,N
1512052575.7,286046993.5,N
1512052595.5,286046997.5,N
1512052615.4,286046996.8,N
1512052635.2,286046996.5,N
1512052655.0,286046995.3,N
1512052655.9,286046995.3,N
1512052675.7,286046993.6,N
1512052695.6,286046996.3,N
1512052715.4,286046997.8,N
1512052735.2,286046995.1,N
1512052755.1,286046997.9,N
1512052756.0,286046997.9,N
1512052775.8,286046997.3,N
1512052795.6,286046995.7,N
1512052815.5,286046993.4,Y
1512052835.3,286047000.6,P
1512052855.1,286047002.3,N
1512052875.9,286047001.8,N
1512052895.7,286047004.4,N
1512052915.5,286047007.4,N
1512052935.4,286047003.5,N
1512052955.2,286047001.5,N
1512052975.0,286047004.0,N
1512052975.9,286047004.0,N
1512052995.8,286047002.0,N
1512053015.6,286047001.5,N
1512053035.4,286047002.3,N
1512053055.3,286047001.6,N
1512053075.1,286047002.9,N
1512053076.0,286047002.9,N
1512053095.8,286047003.8,N
1512053115.6,286047003.5,N
1512053135.5,286047004.1,N
1512053155.3,286047002.0,N
1512053175.1,286047004.1,N
1512053195.9,286047001.5,N
1512053215.7,286047002.2,N
1512053235.5,286047001.4,N
1512053255.4,286047003.5,N
1512053275.2,286047001.3,N
1512053295.0,286047003.9,N
1512053295.9,286047003.9,N
1512053315.8,286047002.6,N
1512053335.6,286047000.7,N
1512053355.4,286046998.9,N
1512053375.3,286047002.6,N
1512053395.1,286047003.7,N
1512053396.0,286047003.7,N
1512053415.8,286047002.0,N
1512053435.6,286047001.3,N
1512053455.5,286047004.4,Y
1512053475.3,286047001.0,P
1512053495.1,286047000.6,N
1512053515.9,286047000.4,N
1512053535.7,286046999.8,N
1512053555.5,286046998.4,N
1512053575.4,286047001.1,N
1512053595.2,286046998.1,N
1512053615.0,286047000.2,N
1512053615.9,286047000.2,N
1512053635.8,286047002.2,N
1512053655.6,286047001.4,N
1512053675.4,286047004.3,Y
1512053695.3,286046999.9,P
1512053715.1,286046998.4,P
1512053735.8,286047001.1,N
1512053755.7,286046999.0,N
1512053775.5,286046999.2,N
1512053795.3,286046995.0,Y
1512053815.2,286046997.5,P
1512053835.9,286046996.9,N
1512053855.7,286046996.8,N
1512053875.6,286046996.7,N
1512053895.4,286046995.4,Y
1512053915.2,286046999.3,P
1512053935.1,286047000.5,N
1512053936.0,286047000.5,N
1512053955.8,286046998.9,N
1512053975.6,286047000.3,N
1512053995.5,286047005.7,Y
